Time,TemperatureF,DewpointF,PressureIn,WindDirection,WindDirectionDegrees,WindSpeedMPH,WindSpeedGustMPH,Humidity,HourlyPrecipIn,Conditions,Clouds,dailyrainin,SolarRadiationWatts/m^2,SoftwareType,DateUTC
2013-11-09 00:03:00,31.8,28.7,25.41,South,180,0.0,0.0,88,0.00,RA,,0.00,0.0,WeatherDisplay:10.37,2013-11-09 07:03:00,
2013-11-09 00:08:00,32.0,28.8,25.41,SW,225,0.0,0.0,88,0.00,RA,,0.00,0.0,WeatherDisplay:10.37,2013-11-09 07:08:00,
2013-11-09 00:13:00,32.0,28.8,25.41,West,270,0.0,0.0,88,0.00,CLR,,0.00,0.0,WeatherDisplay:10.37,2013-11-09 07:13:00,
2013-11-09 00:18:00,32.0,28.8,25.41,SW,225,0.0,0.0,88,0.00,CLR,,0.00,0.0,WeatherDisplay:10.37,2013-11-09 07:18:00,
2013-11-09 00:23:00,32.0,28.6,25.42,South,180,0.0,0.0,87,0.00,CLR,,0.00,8704.2,WeatherDisplay:10.37,2013-11-09 07:23:00,
2013-11-09 00:28:00,32.0,28.6,25.42,South,180,0.0,0.0,87,0.00,CLR,,0.00,0.0,WeatherDisplay:10.37,2013-11-09 07:28:00,
2013-11-09 00:33:00,32.0,28.6,25.42,South,180,0.0,0.0,87,0.00,CLR,,0.00,0.0,WeatherDisplay:10.37,2013-11-09 07:33:00,
2013-11-09 00:38:00,31.8,28.4,25.42,South,180,0.0,0.0,87,0.00,CLR,,0.00,0.0,WeatherDisplay:10.37,2013-11-09 07:38:00,
2013-11-09 00:43:00,31.8,28.4,25.42,South,180,0.0,0.0,87,0.00,CLR,,0.00,0.0,WeatherDisplay:10.37,2013-11-09 07:43:00,
2013-11-09 00:48:00,31.8,28.4,25.42,South,180,0.0,0.0,87,0.00,CLR,,0.00,0.0,WeatherDisplay:10.37,2013-11-09 07:48:00,
2013-11-09 00:53:00,31.6,28.2,25.42,South,180,0.0,0.0,87,0.00,CLR,,0.00,0.0,WeatherDisplay:10.37,2013-11-09 07:53:00,
2013-11-09 00:58:00,31.8,28.4,25.42,South,180,0.0,0.0,87,0.00,CLR,,0.00,0.0,WeatherDisplay:10.37,2013-11-09 07:58:00,
2013-11-09 01:03:00,31.8,28.4,25.42,South,180,0.0,0.0,87,0.00,CLR,,0.00,8807.8,WeatherDisplay:10.37,2013-11-09 08:03:00,
2013-11-09 01:08:00,31.6,28.2,25.42,South,180,0.0,0.0,87,0.00,CLR,,0.00,0.0,WeatherDisplay:10.37,2013-11-09 08:08:00,
2013-11-09 01:13:00,31.6,27.9,25.42,South,180,0.0,0.0,86,0.00,CLR,,0.00,0.0,WeatherDisplay:10.37,2013-11-09 08:13:00,
2013-11-09 01:18:00,31.5,27.8,25.42,South,180,0.0,0.0,86,0.00,CLR,,0.00,0.0,WeatherDisplay:10.37,2013-11-09 08:18:00,
2013-11-09 01:23:00,31.5,27.8,25.42,South,180,0.0,0.0,86,0.00,CLR,,0.00,0.0,WeatherDisplay:10.37,2013-11-09 08:23:00,
2013-11-09 01:28:00,31.5,27.8,25.42,South,180,0.0,0.0,86,0.00,CLR,,0.00,8859.6,WeatherDisplay:10.37,2013-11-09 08:28:00,
2013-11-09 01:33:00,31.5,27.8,25.42,South,180,0.0,0.0,86,0.00,CLR,,0.00,0.0,WeatherDisplay:10.37,2013-11-09 08:33:00,
2013-11-09 01:40:00,31.5,27.8,25.42,South,180,0.0,0.0,86,0.00,CLR,,0.00,8859.6,WeatherDisplay:10.37,2013-11-09 08:40:00,
2013-11-09 01:45:00,31.5,27.8,25.43,South,180,0.0,0.0,86,0.00,CLR,,0.00,0.0,WeatherDisplay:10.37,2013-11-09 08:45:00,
2013-11-09 01:50:00,31.3,27.6,25.42,South,180,0.0,0.0,86,0.00,CLR,,0.00,8911.3,WeatherDisplay:10.37,2013-11-09 08:50:00,
2013-11-09 01:55:00,31.3,27.6,25.42,South,180,0.0,0.0,86,0.00,CLR,,0.00,0.0,WeatherDisplay:10.37,2013-11-09 08:55:00,
2013-11-09 02:00:00,31.3,27.6,25.43,South,180,0.0,0.0,86,0.00,CLR,,0.00,0.0,WeatherDisplay:10.37,2013-11-09 09:00:00,
2013-11-09 02:05:00,31.1,27.4,25.43,South,180,0.0,0.0,86,0.00,CLR,,0.00,8911.3,WeatherDisplay:10.37,2013-11-09 09:05:00,
2013-11-09 02:10:00,31.1,27.4,25.43,South,180,0.0,0.0,86,0.00,CLR,,0.00,0.0,WeatherDisplay:10.37,2013-11-09 09:10:00,
2013-11-09 02:15:00,31.1,27.4,25.43,South,180,0.0,0.0,86,0.00,CLR,,0.00,0.0,WeatherDisplay:10.37,2013-11-09 09:15:00,
2013-11-09 02:20:00,31.1,27.4,25.42,South,180,0.0,0.0,86,0.00,CLR,,0.00,0.0,WeatherDisplay:10.37,2013-11-09 09:20:00,
2013-11-09 02:25:00,31.1,27.4,25.42,South,180,0.0,0.0,86,0.00,CLR,,0.00,0.0,WeatherDisplay:10.37,2013-11-09 09:25:00,
2013-11-09 02:30:00,31.1,27.4,25.42,South,180,0.0,0.0,86,0.00,CLR,,0.00,8911.3,WeatherDisplay:10.37,2013-11-09 09:30:00,
2013-11-09 02:35:00,31.1,27.4,25.42,South,180,0.0,0.0,86,0.00,CLR,,0.00,0.0,WeatherDisplay:10.37,2013-11-09 09:35:00,
2013-11-09 02:40:00,30.9,27.2,25.43,South,180,0.0,0.0,86,0.00,CLR,,0.00,0.0,WeatherDisplay:10.37,2013-11-09 09:40:00,
2013-11-09 02:45:00,30.9,27.2,25.43,South,180,0.0,0.0,86,0.00,CLR,,0.00,8911.3,WeatherDisplay:10.37,2013-11-09 09:45:00,
2013-11-09 02:50:00,30.9,27.2,25.43,South,180,0.0,0.0,86,0.00,CLR,,0.00,0.0,WeatherDisplay:10.37,2013-11-09 09:50:00,
2013-11-09 02:55:00,30.7,26.8,25.43,South,180,0.0,0.0,85,0.00,CLR,,0.00,0.0,WeatherDisplay:10.37,2013-11-09 09:55:00,
2013-11-09 03:00:00,30.7,26.8,25.43,South,180,0.0,0.0,85,0.00,CLR,,0.00,0.0,WeatherDisplay:10.37,2013-11-09 10:00:00,
2013-11-09 03:05:00,30.7,26.8,25.44,South,180,0.0,0.0,85,0.00,CLR,,0.00,0.0,WeatherDisplay:10.37,2013-11-09 10:05:00,
2013-11-09 03:10:00,30.6,26.6,25.44,South,180,0.0,0.0,85,0.00,CLR,,0.00,8911.3,WeatherDisplay:10.37,2013-11-09 10:10:00,
2013-11-09 03:15:00,30.6,26.6,25.44,South,180,0.0,0.0,85,0.00,CLR,,0.00,0.0,WeatherDisplay:10.37,2013-11-09 10:15:00,
2013-11-09 03:20:00,30.6,26.3,25.44,South,180,0.0,0.0,84,0.00,CLR,,0.00,0.0,WeatherDisplay:10.37,2013-11-09 10:20:00,
2013-11-09 03:25:00,30.4,26.4,25.44,South,180,0.0,0.0,85,0.00,CLR,,0.00,8859.6,WeatherDisplay:10.37,2013-11-09 10:25:00,
2013-11-09 03:30:00,30.4,26.4,25.45,South,180,0.0,0.0,85,0.00,CLR,,0.00,0.0,WeatherDisplay:10.37,2013-11-09 10:30:00,
2013-11-09 03:35:00,30.4,26.4,25.44,South,180,0.0,0.0,85,0.00,CLR,,0.00,0.0,WeatherDisplay:10.37,2013-11-09 10:35:00,
2013-11-09 03:40:00,30.2,26.2,25.44,South,180,0.0,0.0,85,0.00,CLR,,0.00,8859.6,WeatherDisplay:10.37,2013-11-09 10:40:00,
2013-11-09 03:45:00,30.2,26.2,25.44,SW,225,0.0,0.0,85,0.00,CLR,,0.00,0.0,WeatherDisplay:10.37,2013-11-09 10:45:00,
2013-11-09 03:50:00,30.0,25.8,25.45,SW,225,0.0,0.0,84,0.00,CLR,,0.00,8807.8,WeatherDisplay:10.37,2013-11-09 10:50:00,
2013-11-09 03:55:00,29.8,25.6,25.44,South,180,0.0,0.0,84,0.00,CLR,,0.00,0.0,WeatherDisplay:10.37,2013-11-09 10:55:00,
2013-11-09 04:00:00,29.7,25.4,25.44,South,180,0.0,0.0,84,0.00,CLR,,0.00,0.0,WeatherDisplay:10.37,2013-11-09 11:00:00,
2013-11-09 04:05:00,29.7,25.4,25.45,South,180,0.0,0.0,84,0.00,CLR,,0.00,8807.8,WeatherDisplay:10.37,2013-11-09 11:05:00,
2013-11-09 04:10:00,29.1,24.9,25.45,South,180,0.0,0.0,84,0.00,CLR,,0.00,0.0,WeatherDisplay:10.37,2013-11-09 11:10:00,
2013-11-09 04:15:00,28.9,24.7,25.45,South,180,0.0,0.0,84,0.00,CLR,,0.00,8807.8,WeatherDisplay:10.37,2013-11-09 11:15:00,
2013-11-09 04:20:00,28.9,25.0,25.45,SE,135,0.0,0.0,85,0.00,CLR,,0.00,0.0,WeatherDisplay:10.37,2013-11-09 11:20:00,
2013-11-09 04:25:00,28.8,24.8,25.45,South,180,0.0,0.0,85,0.00,CLR,,0.00,0.0,WeatherDisplay:10.37,2013-11-09 11:25:00,
2013-11-09 04:30:00,28.4,24.5,25.45,South,180,0.0,0.0,85,0.00,CLR,,0.00,8756.0,WeatherDisplay:10.37,2013-11-09 11:30:00,
2013-11-09 04:35:00,28.4,24.5,25.45,South,180,0.0,0.0,85,0.00,CLR,,0.00,0.0,WeatherDisplay:10.37,2013-11-09 11:35:00,
2013-11-09 04:40:00,28.0,24.1,25.45,South,180,0.0,0.0,85,0.00,CLR,,0.00,0.0,WeatherDisplay:10.37,2013-11-09 11:40:00,
2013-11-09 04:45:00,28.0,24.1,25.45,South,180,0.0,0.0,85,0.00,CLR,,0.00,8756.0,WeatherDisplay:10.37,2013-11-09 11:45:00,
2013-11-09 04:50:00,27.9,23.9,25.45,South,180,0.0,0.0,85,0.00,CLR,,0.00,0.0,WeatherDisplay:10.37,2013-11-09 11:50:00,
2013-11-09 04:55:00,27.9,24.2,25.45,South,180,0.0,0.0,86,0.00,CLR,,0.00,8704.2,WeatherDisplay:10.37,2013-11-09 11:55:00,
2013-11-09 05:00:00,27.9,24.2,25.45,South,180,0.0,0.0,86,0.00,CLR,,0.00,0.0,WeatherDisplay:10.37,2013-11-09 12:00:00,
2013-11-09 05:05:00,27.9,24.2,25.45,South,180,0.0,0.0,86,0.00,CLR,,0.00,0.0,WeatherDisplay:10.37,2013-11-09 12:05:00,
2013-11-09 05:10:00,27.5,23.6,25.45,North,0,0.0,0.0,85,0.00,CLR,,0.00,8704.2,WeatherDisplay:10.37,2013-11-09 12:10:00,
2013-11-09 05:16:00,27.3,23.4,25.45,North,0,0.0,0.0,85,0.00,CLR,,0.00,0.0,WeatherDisplay:10.37,2013-11-09 12:16:00,
2013-11-09 05:21:00,27.3,23.7,25.46,SW,225,0.0,0.0,86,0.00,CLR,,0.00,8652.5,WeatherDisplay:10.37,2013-11-09 12:21:00,
2013-11-09 05:26:00,27.1,23.5,25.46,South,180,0.0,0.0,86,0.00,CLR,,0.00,8652.5,WeatherDisplay:10.37,2013-11-09 12:26:00,
2013-11-09 05:31:00,27.0,23.3,25.46,SW,225,0.0,0.0,86,0.00,CLR,,0.00,0.0,WeatherDisplay:10.37,2013-11-09 12:31:00,
2013-11-09 05:36:00,27.0,23.3,25.46,South,180,0.0,0.0,86,0.00,CLR,,0.00,8652.5,WeatherDisplay:10.37,2013-11-09 12:36:00,
2013-11-09 05:41:00,26.8,23.2,25.47,South,180,0.0,0.0,86,0.00,CLR,,0.00,0.0,WeatherDisplay:10.37,2013-11-09 12:41:00,
2013-11-09 05:46:00,26.8,23.2,25.46,South,180,0.0,0.0,86,0.00,CLR,,0.00,0.0,WeatherDisplay:10.37,2013-11-09 12:46:00,
2013-11-09 05:51:00,26.8,23.2,25.46,South,180,0.0,0.0,86,0.00,CLR,,0.00,8652.5,WeatherDisplay:10.37,2013-11-09 12:51:00,
2013-11-09 05:56:00,26.8,23.2,25.46,South,180,0.0,0.0,86,0.00,CLR,,0.00,0.0,WeatherDisplay:10.37,2013-11-09 12:56:00,
2013-11-09 06:01:00,26.8,23.2,25.46,South,180,0.0,0.0,86,0.00,CLR,,0.00,8652.5,WeatherDisplay:10.37,2013-11-09 13:01:00,
2013-11-09 06:06:00,26.8,23.2,25.47,South,180,0.0,0.0,86,0.00,CLR,,0.00,8652.5,WeatherDisplay:10.37,2013-11-09 13:06:00,
2013-11-09 06:11:00,26.4,22.8,25.46,SW,225,0.0,0.0,86,0.00,CLR,,0.00,0.0,WeatherDisplay:10.37,2013-11-09 13:11:00,
2013-11-09 06:16:00,26.2,22.3,25.47,SSW,202,0.0,0.0,85,0.00,CLR,,0.00,8652.5,WeatherDisplay:10.37,2013-11-09 13:16:00,
2013-11-09 06:21:00,26.2,22.3,25.47,NW,315,0.0,0.0,85,0.00,CLR,,0.00,0.0,WeatherDisplay:10.37,2013-11-09 13:21:00,
2013-11-09 06:26:00,26.1,22.2,25.46,SW,225,0.0,0.0,85,0.00,CLR,,0.00,0.0,WeatherDisplay:10.37,2013-11-09 13:26:00,
2013-11-09 06:31:00,25.9,22.0,25.47,South,180,0.0,0.0,85,0.00,CLR,,0.00,8704.4,WeatherDisplay:10.37,2013-11-09 13:31:00,
2013-11-09 06:36:00,25.9,22.0,25.47,South,180,0.0,0.0,85,0.00,CLR,,0.00,0.0,WeatherDisplay:10.37,2013-11-09 13:36:00,
2013-11-09 06:41:00,25.7,21.8,25.47,SW,225,0.0,0.0,85,0.00,CLR,,0.00,8704.4,WeatherDisplay:10.37,2013-11-09 13:41:00,
2013-11-09 06:46:00,25.7,21.8,25.47,South,180,0.0,0.0,85,0.00,CLR,,0.00,8704.4,WeatherDisplay:10.37,2013-11-09 13:46:00,
2013-11-09 06:51:00,25.5,21.6,25.47,South,180,0.0,0.0,85,0.00,CLR,,0.00,0.0,WeatherDisplay:10.37,2013-11-09 13:51:00,
2013-11-09 06:56:00,25.3,21.5,25.47,SE,135,0.0,0.0,85,0.00,CLR,,0.00,8808.0,WeatherDisplay:10.37,2013-11-09 13:56:00,
2013-11-09 07:01:00,25.3,21.5,25.47,South,180,0.0,0.0,85,0.00,CLR,,0.00,0.0,WeatherDisplay:10.37,2013-11-09 14:01:00,
2013-11-09 07:06:00,25.3,21.5,25.47,South,180,0.0,0.0,85,0.00,CLR,,0.00,0.0,WeatherDisplay:10.37,2013-11-09 14:06:00,
2013-11-09 07:11:00,25.2,21.6,25.47,South,180,0.0,0.0,86,0.00,CLR,,0.00,8808.0,WeatherDisplay:10.37,2013-11-09 14:11:00,
2013-11-09 07:16:00,25.2,21.3,25.47,South,180,0.0,0.0,85,0.00,CLR,,0.00,0.0,WeatherDisplay:10.37,2013-11-09 14:16:00,
2013-11-09 07:21:00,25.0,21.4,25.47,South,180,0.0,0.0,86,0.00,CLR,,0.00,8911.5,WeatherDisplay:10.37,2013-11-09 14:21:00,
2013-11-09 07:26:00,24.8,21.2,25.48,South,180,0.0,0.0,86,0.00,CLR,,0.00,8911.5,WeatherDisplay:10.37,2013-11-09 14:26:00,
2013-11-09 07:31:00,24.6,21.0,25.48,South,180,0.0,0.0,86,0.00,CLR,,0.00,0.0,WeatherDisplay:10.37,2013-11-09 14:31:00,
2013-11-09 07:36:00,24.4,20.9,25.48,South,180,0.0,0.0,86,0.00,CLR,,0.00,8911.5,WeatherDisplay:10.37,2013-11-09 14:36:00,
2013-11-09 07:41:00,24.3,20.7,25.49,South,180,0.0,0.0,86,0.00,CLR,,0.00,0.0,WeatherDisplay:10.37,2013-11-09 14:41:00,
2013-11-09 07:46:00,24.4,20.9,25.48,West,270,0.0,0.0,86,0.00,CLR,,0.00,8911.5,WeatherDisplay:10.37,2013-11-09 14:46:00,
2013-11-09 07:51:00,24.4,20.9,25.48,West,270,0.0,0.0,86,0.00,CLR,,0.00,8963.3,WeatherDisplay:10.37,2013-11-09 14:51:00,
2013-11-09 07:56:00,24.4,21.1,25.49,South,180,0.0,0.0,87,0.00,CLR,,0.00,0.0,WeatherDisplay:10.37,2013-11-09 14:56:00,
2013-11-09 08:01:00,24.4,21.1,25.49,South,180,0.0,0.0,87,0.00,CLR,,0.00,8963.3,WeatherDisplay:10.37,2013-11-09 15:01:00,
2013-11-09 08:06:00,24.4,21.1,25.49,South,180,0.0,0.0,87,0.00,CLR,,0.00,8963.3,WeatherDisplay:10.37,2013-11-09 15:06:00,
2013-11-09 08:11:00,24.4,21.1,25.49,South,180,0.0,0.0,87,0.00,CLR,,0.00,8963.3,WeatherDisplay:10.37,2013-11-09 15:11:00,
2013-11-09 08:16:00,24.4,21.1,25.49,South,180,0.0,0.0,87,0.00,CLR,,0.00,8963.3,WeatherDisplay:10.37,2013-11-09 15:16:00,
2013-11-09 08:21:00,24.6,21.3,25.49,South,180,0.0,0.0,87,0.00,CLR,,0.00,9015.1,WeatherDisplay:10.37,2013-11-09 15:21:00,
2013-11-09 08:26:00,24.8,21.5,25.49,South,180,0.0,0.0,87,0.00,CLR,,0.00,9015.1,WeatherDisplay:10.37,2013-11-09 15:26:00,
2013-11-09 08:31:00,25.2,21.8,25.49,South,180,0.0,0.0,87,0.00,CLR,,0.00,9015.1,WeatherDisplay:10.37,2013-11-09 15:31:00,
2013-11-09 08:36:00,25.3,22.3,25.48,South,180,0.0,0.0,88,0.00,CLR,,0.00,9015.1,WeatherDisplay:10.37,2013-11-09 15:36:00,
2013-11-09 08:41:00,25.7,22.6,25.48,South,180,0.0,0.0,88,0.00,CLR,,0.00,9015.1,WeatherDisplay:10.37,2013-11-09 15:41:00,
2013-11-09 08:46:00,26.1,22.7,25.48,South,180,0.0,0.0,87,0.00,CLR,,0.00,9015.1,WeatherDisplay:10.37,2013-11-09 15:46:00,
2013-11-09 08:51:00,26.2,22.9,25.48,South,180,0.0,0.0,87,0.00,CLR,,0.00,9015.1,WeatherDisplay:10.37,2013-11-09 15:51:00,
2013-11-09 08:56:00,26.6,23.3,25.49,South,180,0.0,0.0,87,0.00,CLR,,0.00,9015.1,WeatherDisplay:10.37,2013-11-09 15:56:00,
2013-11-09 09:01:00,27.0,23.6,25.48,South,180,0.0,0.0,87,0.00,CLR,,0.00,9015.1,WeatherDisplay:10.37,2013-11-09 16:01:00,
2013-11-09 09:06:00,27.0,23.6,25.48,South,180,0.0,0.0,87,0.00,CLR,,0.00,9015.1,WeatherDisplay:10.37,2013-11-09 16:06:00,
2013-11-09 09:11:00,27.9,24.5,25.48,South,180,0.0,0.0,87,0.00,CLR,,0.00,9015.1,WeatherDisplay:10.37,2013-11-09 16:11:00,
2013-11-09 09:16:00,28.2,24.8,25.48,South,180,0.0,0.0,87,0.00,CLR,,0.00,9015.1,WeatherDisplay:10.37,2013-11-09 16:16:00,
2013-11-09 09:21:00,28.8,25.1,25.48,South,180,0.0,0.0,86,0.00,CLR,,0.00,9015.1,WeatherDisplay:10.37,2013-11-09 16:21:00,
2013-11-09 09:26:00,29.5,25.8,25.48,SE,135,0.0,0.0,86,0.00,CLR,,0.00,9015.1,WeatherDisplay:10.37,2013-11-09 16:26:00,
2013-11-09 09:31:00,30.2,26.2,25.48,West,270,0.0,0.0,85,0.00,CLR,,0.00,9015.1,WeatherDisplay:10.37,2013-11-09 16:31:00,
2013-11-09 09:36:00,30.7,26.5,25.48,West,270,0.0,0.0,84,0.00,CLR,,0.00,9015.1,WeatherDisplay:10.37,2013-11-09 16:36:00,
2013-11-09 09:41:00,31.3,26.7,25.48,West,270,0.0,0.0,83,0.00,CLR,,0.00,9015.1,WeatherDisplay:10.37,2013-11-09 16:41:00,
2013-11-09 09:46:00,31.8,27.0,25.48,South,180,0.0,0.0,82,0.00,CLR,,0.00,9015.1,WeatherDisplay:10.37,2013-11-09 16:46:00,
2013-11-09 09:51:00,32.2,27.3,25.48,South,180,0.0,0.0,82,0.00,CLR,,0.00,9015.1,WeatherDisplay:10.37,2013-11-09 16:51:00,
2013-11-09 09:56:00,32.7,27.5,25.48,SW,225,0.0,0.0,81,0.00,CLR,,0.00,9015.1,WeatherDisplay:10.37,2013-11-09 16:56:00,
2013-11-09 10:01:00,33.3,27.8,25.48,SW,225,0.0,0.0,80,0.00,OVC,,0.00,9015.1,WeatherDisplay:10.37,2013-11-09 17:01:00,
2013-11-09 10:06:00,33.3,27.8,25.48,SW,225,0.0,0.0,80,0.00,OVC,,0.00,9015.1,WeatherDisplay:10.37,2013-11-09 17:06:00,
2013-11-09 10:11:00,35.1,28.6,25.49,East,90,0.0,0.0,77,0.00,OVC,,0.00,9015.1,WeatherDisplay:10.37,2013-11-09 17:11:00,
2013-11-09 10:16:00,35.6,28.1,25.49,SW,225,0.0,0.0,74,0.00,OVC,,0.00,9015.1,WeatherDisplay:10.37,2013-11-09 17:16:00,
2013-11-09 10:21:00,36.0,27.1,25.49,West,270,1.2,0.0,70,0.00,OVC,,0.00,9015.1,WeatherDisplay:10.37,2013-11-09 17:21:00,
2013-11-09 10:26:00,36.5,26.2,25.48,SW,225,2.3,2.3,66,0.00,OVC,,0.00,9015.1,WeatherDisplay:10.37,2013-11-09 17:26:00,
2013-11-09 10:31:00,36.9,25.8,25.49,SW,225,0.0,0.0,64,0.00,OVC,,0.00,9015.1,WeatherDisplay:10.37,2013-11-09 17:31:00,
2013-11-09 10:36:00,37.2,26.2,25.49,SW,225,0.0,0.0,64,0.00,OVC,,0.00,9015.1,WeatherDisplay:10.37,2013-11-09 17:36:00,
2013-11-09 10:41:00,37.6,26.1,25.49,South,180,0.0,0.0,63,0.00,OVC,,0.00,9015.1,WeatherDisplay:10.37,2013-11-09 17:41:00,
2013-11-09 10:46:00,38.1,25.8,25.49,West,270,0.0,0.0,61,0.00,OVC,,0.00,9015.1,WeatherDisplay:10.37,2013-11-09 17:46:00,
2013-11-09 10:51:00,38.8,24.9,25.48,NE,45,0.0,0.0,57,0.00,OVC,,0.00,8963.1,WeatherDisplay:10.37,2013-11-09 17:51:00,
2013-11-09 10:56:00,39.2,24.8,25.48,North,0,0.0,0.0,56,0.00,OVC,,0.00,8963.1,WeatherDisplay:10.37,2013-11-09 17:56:00,
2013-11-09 11:01:00,39.6,25.1,25.48,WNW,292,0.0,0.0,56,0.00,OVC,,0.00,8963.1,WeatherDisplay:10.37,2013-11-09 18:01:00,
2013-11-09 11:06:00,39.6,25.1,25.48,WNW,292,0.0,0.0,56,0.00,OVC,,0.00,8963.1,WeatherDisplay:10.37,2013-11-09 18:06:00,
2013-11-09 11:11:00,40.6,23.9,25.48,West,270,3.5,0.0,51,0.00,OVC,,0.00,8963.1,WeatherDisplay:10.37,2013-11-09 18:11:00,
2013-11-09 11:16:00,41.0,23.3,25.48,SW,225,3.5,3.5,49,0.00,OVC,,0.00,8963.1,WeatherDisplay:10.37,2013-11-09 18:16:00,
2013-11-09 11:21:00,41.2,21.9,25.48,South,180,5.8,5.8,46,0.00,OVC,,0.00,8963.3,WeatherDisplay:10.37,2013-11-09 18:21:00,
2013-11-09 11:26:00,41.5,22.3,25.48,SE,135,4.6,0.0,46,0.00,OVC,,0.00,8963.3,WeatherDisplay:10.37,2013-11-09 18:26:00,
2013-11-09 11:31:00,41.9,21.5,25.48,SW,225,3.5,3.5,44,0.00,OVC,,0.00,8963.3,WeatherDisplay:10.37,2013-11-09 18:31:00,
2013-11-09 11:36:00,42.3,21.9,25.47,SW,225,4.6,4.6,44,0.00,OVC,,0.00,8963.3,WeatherDisplay:10.37,2013-11-09 18:36:00,
2013-11-09 11:41:00,42.8,21.3,25.48,West,270,5.8,5.8,42,0.00,OVC,,0.00,8963.3,WeatherDisplay:10.37,2013-11-09 18:41:00,
2013-11-09 11:46:00,43.2,22.1,25.47,East,90,3.5,0.0,43,0.00,OVC,,0.00,8963.3,WeatherDisplay:10.37,2013-11-09 18:46:00,
2013-11-09 11:51:00,43.5,20.8,25.47,SW,225,6.9,6.9,40,0.00,OVC,,0.00,8963.1,WeatherDisplay:10.37,2013-11-09 18:51:00,
2013-11-09 11:56:00,43.7,20.9,25.47,South,180,8.1,0.0,40,0.00,OVC,,0.00,8963.1,WeatherDisplay:10.37,2013-11-09 18:56:00,
2013-11-09 12:01:00,43.9,21.1,25.46,SW,225,2.3,0.0,40,0.00,OVC,,0.00,8963.1,WeatherDisplay:10.37,2013-11-09 19:01:00,
2013-11-09 12:06:00,44.2,20.2,25.46,SE,135,2.3,2.3,38,0.00,OVC,,0.00,8963.1,WeatherDisplay:10.37,2013-11-09 19:06:00,
2013-11-09 12:11:00,44.2,20.2,25.46,SW,225,3.5,3.5,38,0.00,OVC,,0.00,8963.1,WeatherDisplay:10.37,2013-11-09 19:11:00,
2013-11-09 12:16:00,44.1,20.0,25.46,South,180,5.8,5.8,38,0.00,OVC,,0.00,8963.1,WeatherDisplay:10.37,2013-11-09 19:16:00,
2013-11-09 12:21:00,44.2,20.8,25.46,SE,135,2.3,0.0,39,0.00,OVC,,0.00,8963.1,WeatherDisplay:10.37,2013-11-09 19:21:00,
2013-11-09 12:26:00,44.8,20.7,25.45,South,180,3.5,3.5,38,0.00,OVC,,0.00,8963.1,WeatherDisplay:10.37,2013-11-09 19:26:00,
2013-11-09 12:31:00,45.1,20.4,25.45,NNW,338,2.3,0.0,37,0.00,OVC,,0.00,8963.1,WeatherDisplay:10.37,2013-11-09 19:31:00,
2013-11-09 12:36:00,45.1,19.7,25.45,SW,225,3.5,3.8,36,0.00,OVC,,0.00,8963.1,WeatherDisplay:10.37,2013-11-09 19:36:00,
2013-11-09 12:41:00,45.0,20.2,25.45,West,270,4.5,4.5,37,0.00,OVC,,0.00,8963.1,WeatherDisplay:10.37,2013-11-09 19:41:00,
2013-11-09 12:46:00,45.0,20.2,25.45,SW,225,5.8,5.8,37,0.00,OVC,,0.00,8963.1,WeatherDisplay:10.37,2013-11-09 19:46:00,
2013-11-09 12:51:00,45.0,20.8,25.44,West,270,1.2,1.6,38,0.00,OVC,,0.00,8911.3,WeatherDisplay:10.37,2013-11-09 19:51:00,
2013-11-09 12:56:00,45.0,20.8,25.44,North,0,5.8,5.8,38,0.00,OVC,,0.00,8911.3,WeatherDisplay:10.37,2013-11-09 19:56:00,
2013-11-09 13:01:00,45.0,21.5,25.44,NW,315,3.5,3.5,39,0.00,OVC,,0.00,8911.3,WeatherDisplay:10.37,2013-11-09 20:01:00,
2013-11-09 13:06:00,44.8,21.3,25.44,East,90,3.5,3.5,39,0.00,OVC,,0.00,8911.3,WeatherDisplay:10.37,2013-11-09 20:06:00,
2013-11-09 13:11:00,44.6,21.7,25.44,SE,135,5.8,0.0,40,0.00,OVC,,0.00,8911.3,WeatherDisplay:10.37,2013-11-09 20:11:00,
2013-11-09 13:16:00,44.6,22.3,25.44,SW,225,1.2,0.0,41,0.00,OVC,,0.00,8911.3,WeatherDisplay:10.37,2013-11-09 20:16:00,
2013-11-09 13:21:00,44.6,21.7,25.44,West,270,3.5,3.5,40,0.00,OVC,,0.00,8859.6,WeatherDisplay:10.37,2013-11-09 20:21:00,
2013-11-09 13:26:00,44.4,21.0,25.44,South,180,8.1,8.1,39,0.00,OVC,,0.00,8859.6,WeatherDisplay:10.37,2013-11-09 20:26:00,
2013-11-09 13:31:00,44.4,21.6,25.45,North,0,3.5,0.0,40,0.00,OVC,,0.00,8859.6,WeatherDisplay:10.37,2013-11-09 20:31:00,
2013-11-09 13:36:00,44.6,21.1,25.44,SE,135,6.9,6.9,39,0.00,OVC,,0.00,8859.6,WeatherDisplay:10.37,2013-11-09 20:36:00,
2013-11-09 13:41:00,44.6,22.3,25.44,NW,315,1.2,1.6,41,0.00,OVC,,0.00,8859.6,WeatherDisplay:10.37,2013-11-09 20:41:00,
2013-11-09 13:46:00,45.0,22.6,25.44,SSE,158,3.5,3.5,41,0.00,OVC,,0.00,8859.6,WeatherDisplay:10.37,2013-11-09 20:46:00,
2013-11-09 13:51:00,45.3,22.4,25.44,WSW,248,4.6,0.0,40,0.00,OVC,,0.00,8859.6,WeatherDisplay:10.37,2013-11-09 20:51:00,
2013-11-09 13:56:00,45.7,22.7,25.44,WSW,248,5.8,5.8,40,0.00,OVC,,0.00,8859.6,WeatherDisplay:10.37,2013-11-09 20:56:00,
2013-11-09 14:01:00,45.7,22.7,25.44,East,90,3.5,0.0,40,0.00,OVC,,0.00,8859.6,WeatherDisplay:10.37,2013-11-09 21:01:00,
2013-11-09 14:06:00,45.7,22.7,25.43,East,90,1.2,0.0,40,0.00,OVC,,0.00,8859.6,WeatherDisplay:10.37,2013-11-09 21:06:00,
2013-11-09 14:11:00,46.2,22.6,25.43,NW,315,2.3,0.0,39,0.00,OVC,,0.00,8859.6,WeatherDisplay:10.37,2013-11-09 21:11:00,
2013-11-09 14:16:00,46.2,22.6,25.42,East,90,2.3,0.0,39,0.00,OVC,,0.00,8859.6,WeatherDisplay:10.37,2013-11-09 21:16:00,
2013-11-09 14:21:00,46.4,23.4,25.43,SW,225,3.5,0.0,40,0.00,OVC,,0.00,8859.6,WeatherDisplay:10.37,2013-11-09 21:21:00,
2013-11-09 14:26:00,46.4,22.1,25.43,North,0,3.5,3.8,38,0.00,OVC,,0.00,8859.6,WeatherDisplay:10.37,2013-11-09 21:26:00,
2013-11-09 14:31:00,45.9,22.3,25.43,East,90,3.5,3.5,39,0.00,OVC,,0.00,8859.6,WeatherDisplay:10.37,2013-11-09 21:31:00,
2013-11-09 14:36:00,45.5,23.1,25.43,NW,315,2.3,0.0,41,0.00,OVC,,0.00,8859.6,WeatherDisplay:10.37,2013-11-09 21:36:00,
2013-11-09 14:41:00,45.1,22.8,25.43,NW,315,3.8,3.8,41,0.00,OVC,,0.00,8859.6,WeatherDisplay:10.37,2013-11-09 21:41:00,
2013-11-09 14:46:00,44.8,22.5,25.42,NW,315,3.5,3.5,41,0.00,OVC,,0.00,8859.6,WeatherDisplay:10.37,2013-11-09 21:46:00,
2013-11-09 14:51:00,44.6,22.9,25.42,NW,315,3.5,3.5,42,0.00,OVC,,0.00,8807.6,WeatherDisplay:10.37,2013-11-09 21:51:00,
2013-11-09 14:56:00,44.4,22.7,25.42,NW,315,6.9,6.9,42,0.00,OVC,,0.00,8807.6,WeatherDisplay:10.37,2013-11-09 21:56:00,
2013-11-09 15:01:00,44.2,23.1,25.42,NW,315,3.5,3.5,43,0.00,OVC,,0.00,8807.6,WeatherDisplay:10.37,2013-11-09 22:01:00,
2013-11-09 15:06:00,44.2,23.1,25.43,NW,315,3.5,3.5,43,0.00,OVC,,0.00,8807.6,WeatherDisplay:10.37,2013-11-09 22:06:00,
2013-11-09 15:11:00,43.5,23.0,25.43,North,0,4.6,4.6,44,0.00,OVC,,0.00,8807.6,WeatherDisplay:10.37,2013-11-09 22:11:00,
2013-11-09 15:16:00,43.3,22.9,25.43,WSW,248,4.6,4.6,44,0.00,OVC,,0.00,8807.6,WeatherDisplay:10.37,2013-11-09 22:16:00,
2013-11-09 15:21:00,43.0,23.1,25.44,NW,315,4.6,4.6,45,0.00,OVC,,0.00,8807.6,WeatherDisplay:10.37,2013-11-09 22:21:00,
2013-11-09 15:26:00,42.8,22.9,25.44,North,0,5.8,5.8,45,0.00,CLR,,0.00,8807.6,WeatherDisplay:10.37,2013-11-09 22:26:00,
2013-11-09 15:31:00,42.6,23.3,25.43,West,270,2.3,2.3,46,0.00,CLR,,0.00,8807.6,WeatherDisplay:10.37,2013-11-09 22:31:00,
2013-11-09 15:36:00,42.4,23.1,25.43,NW,315,3.5,0.0,46,0.00,CLR,,0.00,8807.6,WeatherDisplay:10.37,2013-11-09 22:36:00,
2013-11-09 15:41:00,42.3,23.4,25.44,West,270,3.5,3.5,47,0.00,CLR,,0.00,8807.6,WeatherDisplay:10.37,2013-11-09 22:41:00,
2013-11-09 15:46:00,42.1,23.3,25.44,West,270,4.6,4.6,47,0.00,CLR,,0.00,8807.6,WeatherDisplay:10.37,2013-11-09 22:46:00,
2013-11-09 15:51:00,41.9,23.1,25.44,West,270,2.3,2.3,47,0.00,CLR,,0.00,8755.8,WeatherDisplay:10.37,2013-11-09 22:51:00,
2013-11-09 15:56:00,41.7,22.9,25.44,West,270,2.3,2.3,47,0.00,CLR,,0.00,8755.8,WeatherDisplay:10.37,2013-11-09 22:56:00,
2013-11-09 16:01:00,41.5,22.8,25.44,West,270,2.3,0.0,47,0.00,CLR,,0.00,8755.8,WeatherDisplay:10.37,2013-11-09 23:01:00,
2013-11-09 16:06:00,41.4,22.6,25.44,West,270,1.2,1.2,47,0.00,CLR,,0.00,8755.8,WeatherDisplay:10.37,2013-11-09 23:06:00,
2013-11-09 16:11:00,41.2,22.5,25.44,SW,225,1.2,0.0,47,0.00,CLR,,0.00,8755.8,WeatherDisplay:10.37,2013-11-09 23:11:00,
2013-11-09 16:16:00,41.0,22.8,25.44,West,270,0.0,0.0,48,0.00,CLR,,0.00,8755.8,WeatherDisplay:10.37,2013-11-09 23:16:00,
2013-11-09 16:21:00,40.8,22.6,25.44,SW,225,0.0,0.0,48,0.00,CLR,,0.00,8704.0,WeatherDisplay:10.37,2013-11-09 23:21:00,
2013-11-09 16:26:00,40.6,22.9,25.44,SW,225,0.0,0.0,49,0.00,CLR,,0.00,8704.0,WeatherDisplay:10.37,2013-11-09 23:26:00,
2013-11-09 16:31:00,40.3,22.1,25.44,SW,225,0.0,0.0,48,0.00,CLR,,0.00,8704.0,WeatherDisplay:10.37,2013-11-09 23:31:00,
2013-11-09 16:36:00,40.3,22.1,25.44,SW,225,0.0,0.0,48,0.00,CLR,,0.00,8704.0,WeatherDisplay:10.37,2013-11-09 23:36:00,
2013-11-09 16:41:00,39.4,22.3,25.44,SW,225,0.0,0.0,50,0.00,CLR,,0.00,8704.0,WeatherDisplay:10.37,2013-11-09 23:41:00,
2013-11-09 16:46:00,38.8,22.7,25.45,South,180,0.0,0.0,52,0.00,CLR,,0.00,8704.0,WeatherDisplay:10.37,2013-11-09 23:46:00,
2013-11-09 16:51:00,38.3,22.2,25.45,South,180,0.0,0.0,52,0.00,CLR,,0.00,8600.9,WeatherDisplay:10.37,2013-11-09 23:51:00,
2013-11-09 16:56:00,37.8,22.1,25.45,South,180,0.0,0.0,53,0.00,CLR,,0.00,8600.9,WeatherDisplay:10.37,2013-11-09 23:56:00,
2013-11-09 17:01:00,37.4,21.8,25.44,South,180,0.0,0.0,53,0.00,CLR,,0.00,8600.9,WeatherDisplay:10.37,2013-11-10 00:01:00,
2013-11-09 17:06:00,37.4,21.8,25.45,South,180,0.0,0.0,53,0.00,CLR,,0.00,8600.9,WeatherDisplay:10.37,2013-11-10 00:06:00,
2013-11-09 17:11:00,36.1,21.5,25.45,South,180,0.0,0.0,55,0.00,CLR,,0.00,8600.9,WeatherDisplay:10.37,2013-11-10 00:11:00,
2013-11-09 17:16:00,35.6,21.4,25.45,South,180,0.0,0.0,56,0.00,CLR,,0.00,8600.9,WeatherDisplay:10.37,2013-11-10 00:16:00,
2013-11-09 17:21:00,34.9,20.8,25.45,South,180,0.0,0.0,56,0.00,CLR,,0.00,10102.9,WeatherDisplay:10.37,2013-11-10 00:21:00,
2013-11-09 17:26:00,34.5,20.8,25.45,South,180,0.0,0.0,57,0.00,CLR,,0.00,10102.9,WeatherDisplay:10.37,2013-11-10 00:26:00,
2013-11-09 17:31:00,34.0,21.1,25.45,South,180,0.0,0.0,59,0.00,CLR,,0.00,10102.9,WeatherDisplay:10.37,2013-11-10 00:31:00,
2013-11-09 17:36:00,33.6,20.8,25.45,South,180,0.0,0.0,59,0.00,CLR,,0.00,10102.9,WeatherDisplay:10.37,2013-11-10 00:36:00,
2013-11-09 17:41:00,32.9,20.5,25.45,South,180,0.0,0.0,60,0.00,CLR,,0.00,10102.9,WeatherDisplay:10.37,2013-11-10 00:41:00,
2013-11-09 17:46:00,32.5,20.6,25.45,South,180,0.0,0.0,61,0.00,CLR,,0.00,10102.9,WeatherDisplay:10.37,2013-11-10 00:46:00,
2013-11-09 17:51:00,32.2,20.6,25.45,South,180,0.0,0.0,62,0.00,CLR,,0.00,10051.1,WeatherDisplay:10.37,2013-11-10 00:51:00,
2013-11-09 17:56:00,32.0,20.8,25.45,South,180,0.0,0.0,63,0.00,CLR,,0.00,10051.1,WeatherDisplay:10.37,2013-11-10 00:56:00,
2013-11-09 18:01:00,31.6,20.8,25.44,South,180,0.0,0.0,64,0.00,CLR,,0.00,10051.1,WeatherDisplay:10.37,2013-11-10 01:01:00,
2013-11-09 18:06:00,31.6,20.8,25.44,South,180,0.0,0.0,64,0.00,CLR,,0.00,10051.1,WeatherDisplay:10.37,2013-11-10 01:06:00,
2013-11-09 18:11:00,30.9,20.9,25.44,South,180,0.0,0.0,66,0.00,CLR,,0.00,10051.1,WeatherDisplay:10.37,2013-11-10 01:11:00,
2013-11-09 18:16:00,30.7,21.1,25.44,South,180,0.0,0.0,67,0.00,CLR,,0.00,10051.1,WeatherDisplay:10.37,2013-11-10 01:16:00,
2013-11-09 18:21:00,30.4,20.7,25.45,South,180,0.0,0.0,67,0.00,CLR,,0.00,9999.4,WeatherDisplay:10.37,2013-11-10 01:21:00,
2013-11-09 18:26:00,30.2,20.9,25.45,South,180,0.0,0.0,68,0.00,CLR,,0.00,9999.4,WeatherDisplay:10.37,2013-11-10 01:26:00,
2013-11-09 18:31:00,29.8,20.6,25.46,South,180,0.0,0.0,68,0.00,CLR,,0.00,9999.4,WeatherDisplay:10.37,2013-11-10 01:31:00,
2013-11-09 18:36:00,29.7,20.7,25.45,South,180,0.0,0.0,69,0.00,CLR,,0.00,9999.4,WeatherDisplay:10.37,2013-11-10 01:36:00,
2013-11-09 18:41:00,29.5,20.9,25.45,South,180,0.0,0.0,70,0.00,CLR,,0.00,9999.4,WeatherDisplay:10.37,2013-11-10 01:41:00,
2013-11-09 18:46:00,29.1,20.6,25.45,South,180,0.0,0.0,70,0.00,CLR,,0.00,9999.4,WeatherDisplay:10.37,2013-11-10 01:46:00,
2013-11-09 18:51:00,28.9,20.4,25.45,South,180,0.0,0.0,70,0.00,CLR,,0.00,9947.6,WeatherDisplay:10.37,2013-11-10 01:51:00,
2013-11-09 18:56:00,28.8,20.5,25.46,South,180,0.0,0.0,71,0.00,CLR,,0.00,9947.6,WeatherDisplay:10.37,2013-11-10 01:56:00,
2013-11-09 19:01:00,28.8,20.9,25.46,South,180,0.0,0.0,72,0.00,CLR,,0.00,9947.6,WeatherDisplay:10.37,2013-11-10 02:01:00,
2013-11-09 19:06:00,28.8,20.9,25.45,South,180,0.0,0.0,72,0.00,CLR,,0.00,9947.6,WeatherDisplay:10.37,2013-11-10 02:06:00,
2013-11-09 19:11:00,28.8,21.2,25.45,SE,135,0.0,0.0,73,0.00,CLR,,0.00,9947.6,WeatherDisplay:10.37,2013-11-10 02:11:00,
2013-11-09 19:16:00,28.4,20.8,25.45,SE,135,0.0,0.0,73,0.00,CLR,,0.00,9947.6,WeatherDisplay:10.37,2013-11-10 02:16:00,
2013-11-09 19:21:00,28.2,20.7,25.45,SE,135,0.0,0.0,73,0.00,CLR,,0.00,9895.8,WeatherDisplay:10.37,2013-11-10 02:21:00,
2013-11-09 19:26:00,28.0,20.5,25.45,SW,225,0.0,0.0,73,0.00,CLR,,0.00,9895.8,WeatherDisplay:10.37,2013-11-10 02:26:00,
2013-11-09 19:31:00,27.9,20.6,25.45,South,180,0.0,0.0,74,0.00,CLR,,0.00,9895.8,WeatherDisplay:10.37,2013-11-10 02:31:00,
2013-11-09 19:36:00,27.7,20.5,25.45,South,180,0.0,0.0,74,0.00,CLR,,0.00,9895.8,WeatherDisplay:10.37,2013-11-10 02:36:00,
2013-11-09 19:41:00,27.7,20.8,25.45,South,180,0.0,0.0,75,0.00,CLR,,0.00,9895.8,WeatherDisplay:10.37,2013-11-10 02:41:00,
2013-11-09 19:46:00,27.7,20.8,25.45,South,180,0.0,0.0,75,0.00,CLR,,0.00,9895.8,WeatherDisplay:10.37,2013-11-10 02:46:00,
2013-11-09 19:51:00,27.5,20.9,25.45,South,180,0.0,0.0,76,0.00,CLR,,0.00,9844.1,WeatherDisplay:10.37,2013-11-10 02:51:00,
2013-11-09 19:56:00,27.5,20.9,25.45,South,180,0.0,0.0,76,0.00,CLR,,0.00,9844.1,WeatherDisplay:10.37,2013-11-10 02:56:00,
2013-11-09 20:01:00,27.3,21.1,25.45,SW,225,0.0,0.0,77,0.00,CLR,,0.00,9844.1,WeatherDisplay:10.37,2013-11-10 03:01:00,
2013-11-09 20:06:00,27.3,21.1,25.45,SW,225,0.0,0.0,77,0.00,CLR,,0.00,9844.1,WeatherDisplay:10.37,2013-11-10 03:06:00,
2013-11-09 20:11:00,27.3,21.1,25.45,SW,225,0.0,0.0,77,0.00,CLR,,0.00,9844.1,WeatherDisplay:10.37,2013-11-10 03:11:00,
2013-11-09 20:16:00,27.3,21.4,25.44,South,180,0.0,0.0,78,0.00,CLR,,0.00,9844.1,WeatherDisplay:10.37,2013-11-10 03:16:00,
2013-11-09 20:21:00,27.5,21.5,25.44,South,180,0.0,0.0,78,0.00,CLR,,0.00,9792.3,WeatherDisplay:10.37,2013-11-10 03:21:00,
2013-11-09 20:26:00,27.7,21.7,25.45,South,180,0.0,0.0,78,0.00,CLR,,0.00,9792.3,WeatherDisplay:10.37,2013-11-10 03:26:00,
2013-11-09 20:31:00,27.9,22.2,25.45,South,180,0.0,0.0,79,0.00,CLR,,0.00,9792.3,WeatherDisplay:10.37,2013-11-10 03:31:00,
2013-11-09 20:36:00,28.4,22.7,25.45,South,180,0.0,0.0,79,0.00,CLR,,0.00,9792.3,WeatherDisplay:10.37,2013-11-10 03:36:00,
2013-11-09 20:41:00,28.6,22.6,25.45,South,180,0.0,0.0,78,0.00,CLR,,0.00,9792.3,WeatherDisplay:10.37,2013-11-10 03:41:00,
2013-11-09 20:46:00,28.9,22.9,25.45,South,180,0.0,0.0,78,0.00,CLR,,0.00,9792.3,WeatherDisplay:10.37,2013-11-10 03:46:00,
2013-11-09 20:51:00,29.3,23.3,25.44,South,180,0.0,0.0,78,0.00,CLR,,0.00,9688.7,WeatherDisplay:10.37,2013-11-10 03:51:00,
2013-11-09 20:56:00,29.5,23.5,25.45,South,180,0.0,0.0,78,0.00,CLR,,0.00,9688.7,WeatherDisplay:10.37,2013-11-10 03:56:00,
2013-11-09 21:01:00,29.7,23.6,25.44,South,180,0.0,0.0,78,0.00,CLR,,0.00,9688.7,WeatherDisplay:10.37,2013-11-10 04:01:00,
2013-11-09 21:06:00,29.7,23.6,25.45,South,180,0.0,0.0,78,0.00,CLR,,0.00,9688.7,WeatherDisplay:10.37,2013-11-10 04:06:00,
2013-11-09 21:11:00,30.0,24.0,25.44,South,180,0.0,0.0,78,0.00,CLR,,0.00,9688.7,WeatherDisplay:10.37,2013-11-10 04:11:00,
2013-11-09 21:16:00,30.2,24.2,25.44,South,180,0.0,0.0,78,0.00,CLR,,0.00,9688.7,WeatherDisplay:10.37,2013-11-10 04:16:00,
2013-11-09 21:21:00,30.4,24.0,25.44,South,180,0.0,0.0,77,0.00,CLR,,0.00,9637.0,WeatherDisplay:10.37,2013-11-10 04:21:00,
2013-11-09 21:26:00,30.4,24.0,25.44,West,270,0.0,0.0,77,0.00,CLR,,0.00,9637.0,WeatherDisplay:10.37,2013-11-10 04:26:00,
2013-11-09 21:31:00,30.6,24.5,25.45,North,0,0.0,0.0,78,0.00,CLR,,0.00,9637.0,WeatherDisplay:10.37,2013-11-10 04:31:00,
2013-11-09 21:36:00,30.6,24.2,25.44,NW,315,1.2,0.0,77,0.00,CLR,,0.00,9637.0,WeatherDisplay:10.37,2013-11-10 04:36:00,
2013-11-09 21:41:00,30.6,24.2,25.44,SW,225,0.0,0.0,77,0.00,CLR,,0.00,9637.0,WeatherDisplay:10.37,2013-11-10 04:41:00,
2013-11-09 21:46:00,30.6,24.2,25.44,SW,225,0.0,0.0,77,0.00,CLR,,0.00,9637.0,WeatherDisplay:10.37,2013-11-10 04:46:00,
2013-11-09 21:51:00,30.6,24.2,25.44,SW,225,0.0,0.0,77,0.00,CLR,,0.00,9585.4,WeatherDisplay:10.37,2013-11-10 04:51:00,
2013-11-09 21:56:00,30.6,24.5,25.44,SW,225,0.0,0.0,78,0.00,CLR,,0.00,9585.4,WeatherDisplay:10.37,2013-11-10 04:56:00,
2013-11-09 22:01:00,30.6,24.2,25.44,SW,225,0.0,0.0,77,0.00,CLR,,0.00,9585.4,WeatherDisplay:10.37,2013-11-10 05:01:00,
2013-11-09 22:03:00,30.6,24.2,25.44,SW,225,0.0,0.0,77,0.00,CLR,,0.00,0.0,WeatherDisplay:10.37,2013-11-10 05:03:00,
2013-11-09 22:08:00,30.7,24.4,25.44,SW,225,0.0,0.0,77,0.00,CLR,,0.00,0.0,WeatherDisplay:10.37,2013-11-10 05:08:00,
2013-11-09 22:13:00,30.9,24.9,25.44,West,270,0.0,0.0,78,0.00,CLR,,0.00,9585.4,WeatherDisplay:10.37,2013-11-10 05:13:00,
2013-11-09 22:18:00,30.9,24.9,25.44,West,270,0.0,0.0,78,0.00,CLR,,0.00,0.0,WeatherDisplay:10.37,2013-11-10 05:18:00,
2013-11-09 22:23:00,31.1,24.7,25.44,SW,225,0.0,0.0,77,0.00,CLR,,0.00,9533.4,WeatherDisplay:10.37,2013-11-10 05:23:00,
2013-11-09 22:28:00,31.1,24.7,25.44,SW,225,0.0,0.0,77,0.00,CLR,,0.00,0.0,WeatherDisplay:10.37,2013-11-10 05:28:00,
2013-11-09 22:33:00,31.1,25.0,25.45,SW,225,0.0,0.0,78,0.00,CLR,,0.00,0.0,WeatherDisplay:10.37,2013-11-10 05:33:00,
2013-11-09 22:38:00,31.3,24.9,25.44,SE,135,0.0,0.0,77,0.00,CLR,,0.00,9533.4,WeatherDisplay:10.37,2013-11-10 05:38:00,
2013-11-09 22:43:00,31.3,24.9,25.44,South,180,0.0,0.0,77,0.00,CLR,,0.00,0.0,WeatherDisplay:10.37,2013-11-10 05:43:00,
2013-11-09 22:48:00,31.3,24.9,25.43,South,180,0.0,0.0,77,0.00,CLR,,0.00,0.0,WeatherDisplay:10.37,2013-11-10 05:48:00,
2013-11-09 22:53:00,31.5,25.1,25.43,South,180,0.0,0.0,77,0.00,CLR,,0.00,9429.9,WeatherDisplay:10.37,2013-11-10 05:53:00,
2013-11-09 22:58:00,31.5,25.1,25.43,South,180,0.0,0.0,77,0.00,CLR,,0.00,0.0,WeatherDisplay:10.37,2013-11-10 05:58:00,
2013-11-09 23:03:00,31.5,25.1,25.43,South,180,0.0,0.0,77,0.00,CLR,,0.00,9429.9,WeatherDisplay:10.37,2013-11-10 06:03:00,
2013-11-09 23:08:00,31.6,25.6,25.43,South,180,0.0,0.0,78,0.00,CLR,,0.00,0.0,WeatherDisplay:10.37,2013-11-10 06:08:00,
2013-11-09 23:13:00,31.6,25.6,25.43,North,0,0.0,0.0,78,0.00,CLR,,0.00,0.0,WeatherDisplay:10.37,2013-11-10 06:13:00,
2013-11-09 23:18:00,31.6,25.6,25.44,West,270,0.0,0.0,78,0.00,CLR,,0.00,9378.1,WeatherDisplay:10.37,2013-11-10 06:18:00,
2013-11-09 23:23:00,31.6,25.6,25.44,West,270,0.0,0.0,78,0.00,CLR,,0.00,0.0,WeatherDisplay:10.37,2013-11-10 06:23:00,
2013-11-09 23:28:00,31.6,25.6,25.44,SW,225,0.0,0.0,78,0.00,CLR,,0.00,0.0,WeatherDisplay:10.37,2013-11-10 06:28:00,
2013-11-09 23:33:00,31.6,25.6,25.44,South,180,0.0,0.0,78,0.00,CLR,,0.00,9378.1,WeatherDisplay:10.37,2013-11-10 06:33:00,
2013-11-09 23:38:00,31.6,25.6,25.44,South,180,0.0,0.0,78,0.00,CLR,,0.00,0.0,WeatherDisplay:10.37,2013-11-10 06:38:00,
2013-11-09 23:43:00,31.6,25.6,25.44,South,180,0.0,0.0,78,0.00,CLR,,0.00,9378.1,WeatherDisplay:10.37,2013-11-10 06:43:00,
2013-11-09 23:48:00,31.8,25.7,25.44,South,180,0.0,0.0,78,0.00,CLR,,0.00,9326.3,WeatherDisplay:10.37,2013-11-10 06:48:00,
2013-11-09 23:53:00,31.8,25.7,25.44,South,180,0.0,0.0,78,0.00,CLR,,0.00,0.0,WeatherDisplay:10.37,2013-11-10 06:53:00,
2013-11-09 23:59:00,31.8,25.7,25.44,SW,225,0.0,0.0,78,0.00,CLR,,0.00,9326.3,WeatherDisplay:10.37,2013-11-10 06:59:00,